Terminal Aerodrome Forecast
Issued by NWS

Home | Current Version | Previous Version | Text Only | Print | Product List | Glossary On
Versions: 1 2 3 4 5 6 7 8 9 10 11 12 13 14 15 16 17 18
000
FTUS41 KALY 251915 AAB
TAFPSF
TAF AMD
KPSF 251915Z 2519/2618 22008G18KT P6SM SCT120
      TEMPO 2519/2522 24008KT P6SM BKN120
     FM260000 22008KT P6SM SCT080 BKN120
     FM261200 25010KT P6SM SCT060 BKN150=

USA.gov is the U.S. government's official web portal to all federal, state and local government web resources and services.